FW9015 Weather Reports


time (UTC)temp
C
wind
direction
speed
KPH
gust
KPH
rain 1hr
cm
rain 24hr
cm
rain mn
cm
humidity
%
barometer
mb
20260505063043 17 227 6.4 20.9 0.00 0.00 0.00 100 1013.5
20260505061552 17 223 6.4 11.3 0.00 0.00 0.00 100 1013.3
20260505060044 17 265 3.2 19.3 0.00 0.00 0.00 100 1013.4
20260505054600 17 229 4.8 12.9 0.00 0.00 0.00 100 1013.4
20260505053100 17 215 3.2 12.9 0.00 0.00 0.00 100 1013.5
20260505051539 17 210 1.6 11.3 0.00 0.00 0.00 100 1013.6
20260505041538 18 219 4.8 12.9 0.00 0.00 0.00 100 1013.6
20260505040040 18 229 6.4 12.9 0.00 0.00 0.00 100 1013.5
20260505034538 18 213 6.4 12.9 0.00 0.00 0.00 100 1013.5
20260505033041 18 229 6.4 12.9 0.00 0.00 0.00 100 1013.4
20260505031551 18 219 6.4 17.7 0.00 0.00 0.00 100 1013.4
20260505030038 18 238 4.8 11.3 0.00 0.00 0.00 100 1013.5
20260505024541 18 218 3.2 11.3 0.00 0.00 0.00 100 1013.3
20260505023049 18 207 3.2 11.3 0.00 0.00 0.00 100 1013.3
20260505021540 17 216 1.6 4.8 0.00 0.00 0.00 100 1013.0
20260505020039 15 0 0.0 1.6 0.00 0.00 0.00 100 1012.9
20260505014544 15 0 0.0 0.0 0.00 0.00 0.00 100 1012.9
20260505013049 15 0 0.0 0.0 0.00 0.00 0.00 100 1013.1
20260505011545 16 0 0.0 1.6 0.00 0.00 0.00 100 1013.0
20260505010040 16 250 0.0 1.6 0.00 0.00 0.00 100 1012.9
20260505004547 17 215 1.6 4.8 0.00 0.00 0.00 100 1012.5
20260505003044 17 216 1.6 3.2 0.00 0.00 0.00 100 1012.5
20260505001543 17 219 0.0 3.2 0.00 0.00 0.00 100 1012.4
20260504234542 18 217 0.0 8.0 0.00 0.00 0.00 100 1012.3
20260504233040 18 221 0.0 6.4 0.00 0.00 0.00 100 1012.3
20260504231539 19 222 1.6 8.0 0.00 0.00 0.00 100 1012.1
20260504230055 20 223 1.6 9.7 0.00 0.00 0.00 100 1012.1
20260504224538 20 226 3.2 9.7 0.00 0.00 0.00 100 1012.1
20260504223042 20 178 3.2 8.0 0.00 0.00 0.00 100 1012.1
20260504221550 21 232 3.2 12.9 0.00 0.00 0.00 100 1012.2
20260504220040 21 229 1.6 9.7 0.00 0.00 0.00 100 1012.2
20260504214539 22 169 3.2 14.5 0.00 0.00 0.00 100 1012.4
20260504213046 22 215 4.8 12.9 0.00 0.00 0.00 100 1012.5
20260504211546 22 227 3.2 14.5 0.00 0.00 0.00 100 1012.6
20260504210044 21 355 3.2 8.0 0.00 0.00 0.00 100 1012.4
20260504204541 21 234 3.2 14.5 0.00 0.00 0.00 100 1012.5
20260504203039 21 200 3.2 14.5 0.00 0.00 0.00 100 1012.6
20260504201543 20 207 4.8 11.3 0.00 0.00 0.00 100 1012.8
20260504200045 20 145 1.6 12.9 0.00 0.00 0.00 100 1013.0
20260504194540 20 178 4.8 12.9 0.00 0.00 0.00 100 1013.0
20260504193045 21 204 4.8 17.7 0.00 0.00 0.00 100 1013.1
20260504191543 21 136 4.8 16.1 0.00 0.00 0.00 100 1013.4
20260504190044 21 171 4.8 20.9 0.00 0.00 0.00 100 1013.5
20260504184543 21 226 4.8 14.5 0.00 0.00 0.00 100 1013.8
20260504183039 21 198 4.8 12.9 0.00 0.00 0.00 100 1014.0
20260504181538 21 180 1.6 17.7 0.00 0.00 0.00 100 1014.1
20260504180045 21 175 4.8 12.9 0.00 0.00 0.00 100 1014.3
20260504174542 21 211 4.8 12.9 0.00 0.00 0.00 100 1014.1
20260504173040 21 323 4.8 16.1 0.00 0.00 0.00 100 1014.3
20260504171539 23 239 4.8 14.5 0.00 0.00 0.00 100 1014.5
20260504081544 12 190 3.2 8.0 0.00 0.00 0.00 100 1017.0